When you browse on this site, cookies collect data to enhance your experience and personalize the content and advertising you see.
Visit our Privacy Policy to learn more. By continuing to use the site, you agree to this use of cookies and data.
  • In Portugal
  • List of Countries
  • For 7 days
  • Water Temperature
  • Satellite Maps
  • Weather Map
  • Weather Widgets
  • user-avatar
    Login

    Hourly Weather Belkovo

    Today, 19 April, Friday

    Time Temperature Precipitation Wind Pressure Humidity
    00:00 +7°C° 0 mm 1 mps 767 mmHg 71%
    01:00 +7°C° 0 mm 1 mps 767 mmHg 71%
    02:00 +6°C° 0 mm 1 mps 767 mmHg 71%
    03:00 +5°C° 0 mm 1 mps 767 mmHg 73%
    04:00 +4°C° 0 mm 0 mps 767 mmHg 74%
    05:00 +3°C° 0 mm 0 mps 767 mmHg 75%
    06:00 +5°C° 0 mm 0 mps 767 mmHg 68%
    07:00 +7°C° 0 mm 0 mps 767 mmHg 61%
    08:00 +10°C° 0 mm 0 mps 768 mmHg 53%
    09:00 +11°C° 0 mm 0 mps 767 mmHg 49%
    10:00 +14°C° 0 mm 1 mps 767 mmHg 44%
    11:00 +16°C° 0 mm 1 mps 767 mmHg 40%
    12:00 +16°C° 0 mm 1 mps 766 mmHg 37%
    13:00 +17°C° 0 mm 2 mps 766 mmHg 35%
    14:00 +17°C° 0 mm 2 mps 766 mmHg 32%
    15:00 +17°C° 0 mm 2 mps 765 mmHg 33%
    16:00 +17°C° 0 mm 2 mps 765 mmHg 35%
    17:00 +16°C° 0 mm 3 mps 765 mmHg 36%
    18:00 +15°C° 0 mm 2 mps 765 mmHg 41%
    19:00 +13°C° 0 mm 2 mps 765 mmHg 47%
    20:00 +10°C° 0 mm 2 mps 764 mmHg 52%
    21:00 +10°C° 0 mm 2 mps 764 mmHg 52%
    22:00 +9°C° 0 mm 2 mps 764 mmHg 51%
    23:00 +10°C° 0 mm 1 mps 764 mmHg 51%

    Tomorrow, 20 April, Saturday

    Time Temperature Precipitation Wind Pressure Humidity
    00:00 +9°C° 0 mm 1 mps 764 mmHg 53%
    01:00 +9°C° 0 mm 1 mps 764 mmHg 55%
    02:00 +9°C° 0 mm 1 mps 764 mmHg 57%
    03:00 +9°C° 0 mm 1 mps 764 mmHg 60%
    04:00 +8°C° 0 mm 1 mps 763 mmHg 63%
    05:00 +8°C° 0 mm 1 mps 763 mmHg 65%
    06:00 +8°C° 0.1 mm 1 mps 763 mmHg 68%
    07:00 +8°C° 0.1 mm 1 mps 763 mmHg 70%
    08:00 +9°C° 0.1 mm 1 mps 763 mmHg 72%
    09:00 +9°C° 0 mm 2 mps 763 mmHg 66%
    10:00 +10°C° 0 mm 3 mps 763 mmHg 59%
    11:00 +12°C° 0 mm 3 mps 763 mmHg 53%
    12:00 +12°C° 0 mm 3 mps 762 mmHg 48%
    13:00 +13°C° 0 mm 4 mps 762 mmHg 42%
    14:00 +13°C° 0 mm 4 mps 762 mmHg 37%
    15:00 +13°C° 0 mm 4 mps 762 mmHg 38%
    16:00 +12°C° 0 mm 4 mps 762 mmHg 39%
    17:00 +12°C° 0 mm 4 mps 761 mmHg 41%
    18:00 +10°C° 0 mm 4 mps 762 mmHg 45%
    19:00 +9°C° 0 mm 3 mps 762 mmHg 50%
    20:00 +7°C° 0 mm 3 mps 762 mmHg 54%
    21:00 +5°C° 0 mm 3 mps 762 mmHg 59%
    22:00 +5°C° 0 mm 3 mps 762 mmHg 64%
    23:00 +5°C° 0 mm 2 mps 762 mmHg 68%

    Day after tomorrow, 21 April, Sunday

    Time Temperature Precipitation Wind Pressure Humidity
    00:00 +5°C° 0 mm 2 mps 762 mmHg 70%
    01:00 +4°C° 0 mm 3 mps 762 mmHg 72%
    02:00 +4°C° 0 mm 3 mps 762 mmHg 74%
    03:00 +4°C° 0 mm 2 mps 763 mmHg 79%
    04:00 +3°C° 0 mm 2 mps 763 mmHg 83%
    05:00 +2°C° 0 mm 2 mps 763 mmHg 88%
    06:00 +4°C° 0 mm 2 mps 763 mmHg 81%
    07:00 +5°C° 0 mm 2 mps 763 mmHg 74%
    08:00 +7°C° 0 mm 3 mps 763 mmHg 68%
    09:00 +9°C° 0 mm 3 mps 763 mmHg 61%
    10:00 +10°C° 0 mm 3 mps 763 mmHg 55%
    11:00 +12°C° 0 mm 3 mps 763 mmHg 48%
    12:00 +13°C° 0 mm 3 mps 763 mmHg 47%
    13:00 +14°C° 0 mm 3 mps 763 mmHg 46%
    14:00 +14°C° 0 mm 3 mps 763 mmHg 45%
    15:00 +14°C° 0 mm 3 mps 763 mmHg 46%
    16:00 +15°C° 0 mm 2 mps 763 mmHg 47%
    17:00 +15°C° 0 mm 2 mps 763 mmHg 49%
    18:00 +13°C° 0 mm 2 mps 763 mmHg 55%
    19:00 +12°C° 0 mm 1 mps 763 mmHg 62%
    20:00 +10°C° 0 mm 1 mps 763 mmHg 68%
    21:00 +10°C° 0 mm 1 mps 764 mmHg 71%
    22:00 +9°C° 0 mm 1 mps 764 mmHg 73%
    23:00 +9°C° 0 mm 1 mps 764 mmHg 76%

    22 April, Monday

    Time Temperature Precipitation Wind Pressure Humidity
    00:00 +8°C° 0 mm 1 mps 764 mmHg 79%
    01:00 +8°C° 0 mm 1 mps 764 mmHg 81%
    02:00 +7°C° 0 mm 1 mps 765 mmHg 84%
    03:00 +7°C° 0 mm 1 mps 765 mmHg 84%
    04:00 +7°C° 0 mm 1 mps 765 mmHg 83%
    05:00 +5°C° 0 mm 2 mps 765 mmHg 83%
    06:00 +7°C° 0 mm 2 mps 765 mmHg 74%
    07:00 +9°C° 0 mm 2 mps 766 mmHg 64%
    08:00 +12°C° 0 mm 2 mps 766 mmHg 55%
    09:00 +14°C° 0 mm 2 mps 766 mmHg 49%
    10:00 +15°C° 0 mm 2 mps 766 mmHg 43%
    11:00 +16°C° 0 mm 2 mps 766 mmHg 36%
    12:00 +17°C° 0 mm 2 mps 765 mmHg 35%
    13:00 +17°C° 0 mm 3 mps 765 mmHg 34%
    14:00 +18°C° 0 mm 3 mps 765 mmHg 33%
    15:00 +18°C° 0 mm 3 mps 765 mmHg 34%
    16:00 +18°C° 0 mm 2 mps 764 mmHg 35%
    17:00 +17°C° 0 mm 2 mps 764 mmHg 35%
    18:00 +15°C° 0 mm 2 mps 764 mmHg 41%
    19:00 +14°C° 0 mm 2 mps 764 mmHg 47%
    20:00 +12°C° 0 mm 2 mps 765 mmHg 53%
    21:00 +10°C° 0 mm 2 mps 765 mmHg 56%
    22:00 +9°C° 0 mm 2 mps 765 mmHg 59%
    23:00 +9°C° 0 mm 2 mps 765 mmHg 62%

    23 April, Tuesday

    Time Temperature Precipitation Wind Pressure Humidity
    00:00 +8°C° 0 mm 2 mps 765 mmHg 65%
    01:00 +8°C° 0 mm 2 mps 765 mmHg 68%
    02:00 +7°C° 0 mm 2 mps 766 mmHg 71%
    03:00 +7°C° 0 mm 2 mps 766 mmHg 73%
    04:00 +7°C° 0 mm 2 mps 766 mmHg 74%
    05:00 +7°C° 0 mm 2 mps 766 mmHg 75%
    06:00 +8°C° 0 mm 2 mps 766 mmHg 69%
    07:00 +10°C° 0 mm 2 mps 766 mmHg 63%
    08:00 +13°C° 0 mm 2 mps 766 mmHg 57%
    09:00 +14°C° 0 mm 2 mps 766 mmHg 50%
    10:00 +16°C° 0 mm 2 mps 766 mmHg 43%
    11:00 +17°C° 0 mm 2 mps 766 mmHg 36%
    12:00 +18°C° 0 mm 2 mps 766 mmHg 35%
    13:00 +18°C° 0 mm 2 mps 766 mmHg 34%
    14:00 +19°C° 0 mm 2 mps 765 mmHg 33%
    15:00 +18°C° 0 mm 2 mps 765 mmHg 34%
    16:00 +18°C° 0 mm 2 mps 765 mmHg 35%
    17:00 +18°C° 0 mm 2 mps 765 mmHg 36%
    18:00 +16°C° 0 mm 2 mps 765 mmHg 43%
    19:00 +14°C° 0 mm 2 mps 765 mmHg 49%
    20:00 +12°C° 0 mm 2 mps 765 mmHg 55%
    21:00 +12°C° 0 mm 2 mps 765 mmHg 58%
    22:00 +10°C° 0 mm 2 mps 765 mmHg 61%
    23:00 +9°C° 0 mm 2 mps 766 mmHg 63%

    24 April, Wednesday

    Time Temperature Precipitation Wind Pressure Humidity
    00:00 +9°C° 0 mm 2 mps 766 mmHg 65%
    01:00 +8°C° 0 mm 2 mps 766 mmHg 67%
    02:00 +8°C° 0 mm 2 mps 766 mmHg 69%
    03:00 +7°C° 0 mm 2 mps 766 mmHg 71%
    04:00 +7°C° 0 mm 2 mps 766 mmHg 72%
    05:00 +6°C° 0 mm 2 mps 766 mmHg 74%
    06:00 +8°C° 0 mm 2 mps 766 mmHg 68%
    07:00 +10°C° 0 mm 2 mps 766 mmHg 62%
    08:00 +13°C° 0 mm 2 mps 766 mmHg 56%
    09:00 +13°C° 0 mm 3 mps 766 mmHg 50%
    10:00 +16°C° 0 mm 3 mps 766 mmHg 45%
    11:00 +17°C° 0 mm 4 mps 766 mmHg 39%
    12:00 +17°C° 0 mm 4 mps 766 mmHg 38%
    13:00 +18°C° 0 mm 4 mps 765 mmHg 37%
    14:00 +18°C° 0 mm 4 mps 765 mmHg 36%
    15:00 +18°C° 0 mm 4 mps 765 mmHg 37%
    16:00 +18°C° 0 mm 4 mps 764 mmHg 38%
    17:00 +18°C° 0 mm 4 mps 764 mmHg 39%
    18:00 +16°C° 0 mm 3 mps 764 mmHg 45%
    19:00 +13°C° 0 mm 3 mps 764 mmHg 51%
    20:00 +13°C° 0 mm 2 mps 764 mmHg 58%
    21:00 +12°C° 0 mm 2 mps 764 mmHg 60%
    22:00 +10°C° 0 mm 2 mps 764 mmHg 63%
    23:00 +9°C° 0 mm 2 mps 765 mmHg 65%
    Show more